Minneapolis, MN

7:12 AM CST on February 23, 2017 (GMT -0600)
Anoka County / Blaine Airport

Weather History for KANE - October, 2012

Change the Weather History Date:

Wednesday, October 3, 2012

  Actual Average Record
Temperature  
Mean Temperature 62 °F -  
Max Temperature 78 °F 61 °F 87 °F (1997)
Min Temperature 46 °F 40 °F 24 °F (1996)
Degree Days  
Heating Degree Days 3    
Growing Degree Days 12 (Base 50)    
Moisture  
Dew Point 43 °F    
Average Humidity 61    
Maximum Humidity 87    
Minimum Humidity 22    
Precipitation  
Precipitation 0.00 in - - ()
Sea Level Pressure  
Sea Level Pressure 29.88 in    
Wind  
Wind Speed 3 mph (SE)    
Max Wind Speed 13 mph    
Max Gust Speed 18 mph    
Visibility 10 miles    
Events      
Averages and records for this station are not official NWS values.
T = Trace of Precipitation, MM = Missing Value Source: NWS Daily Summary

Daily Weather History Graph

Daily Weather History Graph

Search for Another Location

Airport or City:

Trip Planner

Search our weather history database for the weather conditions in past years. The results will help you decide how hot, cold, wet, or windy it might be!

Date:

Astronomy

Oct. 03, 2012 Rise Set
Actual Time 7:14 AM CDT 6:48 PM CDT
Civil Twilight 6:44 AM CDT 7:17 PM CDT
Nautical Twilight 6:10 AM CDT 7:51 PM CDT
Astronomical Twilight 5:36 AM CDT 8:26 PM CDT
Moon 8:29 PM CDT (10/3) 10:49 AM CDT (10/3)
Length of Visible Light 12h 33m
Length of Day
11h 34m
Waning Gibbous, 88% of the Moon is Illuminated
Oct 3
Waning Gibbous
Oct 8
Last Quarter
Oct 15
New
Oct 21
First Quarter
Oct 29
Full

Hourly Weather History & Observations

Time (CDT) Temp. Windchill Dew Point Humidity Pressure Visibility Wind Dir Wind Speed Gust Speed Precip Events Conditions
12:14 AM 53.6 °F - 42.8 °F 67% 29.88 in 10.0 mi Calm Calm - N/A   Clear
12:34 AM 53.6 °F - 42.8 °F 67% 29.88 in 10.0 mi Calm Calm - N/A   Clear
12:54 AM 53.6 °F - 42.8 °F 67% 29.88 in 10.0 mi Calm Calm - N/A   Clear
1:14 AM 53.6 °F - 42.8 °F 67% 29.88 in 10.0 mi Calm Calm - N/A   Clear
1:34 AM 51.8 °F - 42.8 °F 71% 29.89 in 10.0 mi Calm Calm - N/A   Clear
1:54 AM 48.2 °F - 41.0 °F 76% 29.89 in 10.0 mi Calm Calm - N/A   Clear
2:14 AM 46.4 °F - 41.0 °F 81% 29.89 in 10.0 mi Calm Calm - N/A   Clear
2:34 AM 46.4 °F 44.3 °F 42.8 °F 87% 29.89 in 10.0 mi SE 4.6 mph - N/A   Clear
2:54 AM 50.0 °F - 42.8 °F 76% 29.89 in 10.0 mi SE 3.5 mph - N/A   Clear
3:14 AM 50.0 °F - 42.8 °F 76% 29.89 in 10.0 mi SE 3.5 mph - N/A   Clear
3:34 AM 50.0 °F - 42.8 °F 76% 29.89 in 10.0 mi SSE 4.6 mph - N/A   Clear
3:54 AM 50.0 °F - 42.8 °F 76% 29.88 in 10.0 mi SE 3.5 mph - N/A   Clear
4:14 AM 50.0 °F - 42.8 °F 76% 29.89 in 10.0 mi SSE 4.6 mph - N/A   Clear
4:34 AM 48.2 °F - 42.8 °F 82% 29.88 in 10.0 mi SE 4.6 mph - N/A   Clear
4:54 AM 50.0 °F - 42.8 °F 76% 29.88 in 10.0 mi SE 4.6 mph - N/A   Clear
5:14 AM 50.0 °F - 42.8 °F 76% 29.88 in 10.0 mi SSE 4.6 mph - N/A   Clear
5:34 AM 50.0 °F - 42.8 °F 76% 29.89 in 10.0 mi SSE 4.6 mph - N/A   Clear
5:54 AM 48.2 °F - 42.8 °F 82% 29.90 in 10.0 mi SSE 3.5 mph - N/A   Clear
6:14 AM 48.2 °F - 42.8 °F 82% 29.90 in 10.0 mi SSE 3.5 mph - N/A   Clear
6:34 AM 50.0 °F - 44.6 °F 82% 29.90 in 10.0 mi SSE 3.5 mph - N/A   Clear
6:45 AM 48.2 °F - 42.8 °F 82% 29.90 in 10.0 mi SSE 5.8 mph - N/A   Clear
6:54 AM 46.4 °F 45.2 °F 42.8 °F 87% 29.90 in 10.0 mi SSE 3.5 mph - N/A   Clear
7:45 AM 48.2 °F - 44.6 °F 87% 29.90 in 10.0 mi SSE 3.5 mph - N/A   Clear
8:45 AM 55.4 °F - 48.2 °F 77% 29.90 in 10.0 mi SSE 4.6 mph - N/A   Clear
9:45 AM 62.6 °F - 44.6 °F 52% 29.91 in 10.0 mi SSE 4.6 mph - N/A   Clear
10:45 AM 66.2 °F - 44.6 °F 46% 29.91 in 10.0 mi SSE 4.6 mph - N/A   Clear
11:45 AM 71.6 °F - 39.2 °F 31% 29.90 in 10.0 mi SSE 5.8 mph - N/A   Clear
12:45 PM 75.2 °F - 35.6 °F 24% 29.89 in 10.0 mi SSE 9.2 mph - N/A   Clear
1:45 PM 75.2 °F - 33.8 °F 22% 29.87 in 10.0 mi South 9.2 mph - N/A   Clear
2:45 PM 78.8 °F - 39.2 °F 24% 29.84 in 10.0 mi South 9.2 mph 18.4 mph N/A   Clear
3:45 PM 78.8 °F - 42.8 °F 28% 29.83 in 10.0 mi SSE 11.5 mph 18.4 mph N/A   Clear
4:45 PM 78.8 °F - 41.0 °F 26% 29.83 in 10.0 mi SSE 12.7 mph - N/A   Partly Cloudy
5:45 PM 73.4 °F - 41.0 °F 31% 29.84 in 10.0 mi SE 5.8 mph - N/A   Scattered Clouds
6:45 PM 71.6 °F - 41.0 °F 33% 29.85 in 10.0 mi ESE 4.6 mph - N/A   Scattered Clouds
9:34 PM 64.4 °F - 44.6 °F 49% 29.86 in 10.0 mi ESE 5.8 mph - N/A   Clear
9:54 PM 64.4 °F - 46.4 °F 52% 29.86 in 10.0 mi ESE 6.9 mph - N/A   Clear
10:14 PM 64.4 °F - 46.4 °F 52% 29.86 in 10.0 mi ESE 6.9 mph - N/A   Clear
10:34 PM 64.4 °F - 46.4 °F 52% 29.86 in 10.0 mi ESE 6.9 mph - N/A   Clear
10:54 PM 64.4 °F - 46.4 °F 52% 29.86 in 10.0 mi ESE 8.1 mph - N/A   Clear
11:14 PM 64.4 °F - 46.4 °F 52% 29.85 in 10.0 mi ESE 8.1 mph - N/A   Clear
11:34 PM 66.2 °F - 46.4 °F 49% 29.84 in 10.0 mi ESE 10.4 mph - N/A   Clear
11:54 PM 64.4 °F - 46.4 °F 52% 29.84 in 10.0 mi SE 9.2 mph - N/A   Clear